Location: Erp
(42.9417°N, 1.2009°E)
Time: 18:46:49
(UTC+00:00)

SJ-7 - Pass Details

Date: 14 April 2026
Orbit: 491 x 514 km, 97.7° (Epoch: 12 May)

Event Time Altitude Azimuth Distance (km) Brightness Sun altitude
Rises 19:25:26 0° 193° (SSW) 2,611 7.7 -9.3°
Reaches altitude 10° 19:27:45 10° 207° (SSW) 1,733 6.9 -9.7°
Maximum altitude 19:30:55 26° 264° (W) 1,054 6.5 -10.3°
Drops below altitude 10° 19:34:06 10° 322° (NW) 1,752 8.0 -10.8°
Sets 19:36:29 0° 335° (NNW) 2,645 8.6 -11.2°
